[[{"header":{"parameterUnit":"m.s-1","parameterCategory":2,"la1":30.2992,"la2":30.254,"lo1":-89.0895,"lo2":-89.0443,"dy":0.0025,"dx":0.0025,"nx":19,"ny":19,"refTime":"2026-03-17T03:00:00:Z","depth":"0","parameterNumber":2,"parameterNumberName":"U-component_of_CURRENTS"},"data":[0,0,0,-0.1297,-0.1297,-0.1306,-0.1306,-0.1423,-0.1424,0,0,0,0,0,0,0,0,0,0,0,-0.1288,-0.1288,-0.1297,-0.1297,-0.1306,-0.1306,-0.1423,-0.1424,0,0,0,0,0,0,0,0,0,0,0,-0.1288,-0.1288,-0.1288,-0.1297,-0.1306,-0.1306,-0.1422,-0.139,0,0,0,0,0,0,0,0,0,0,-0.1369,-0.1339,-0.1288,-0.1288,-0.1297,-0.1306,-0.1306,-0.1388,-0.1392,-0.1448,0,-0.1439,0,-0.1438,-0.1434,-0.1435,0,0,0,-0.1301,-0.1335,-0.1343,-0.1288,-0.1297,-0.1306,-0.1303,-0.1389,-0.1395,-0.1454,-0.1441,-0.1444,-0.144,-0.1435,-0.1436,-0.1543,-0.1543,0,0,-0.13,-0.1291,-0.1339,-0.1346,-0.129,-0.1303,-0.1303,-0.1392,-0.1393,-0.1441,-0.1447,-0.1442,-0.1436,-0.1437,-0.1543,-0.1543,0,0,0,-0.1296,-0.129,-0.1294,-0.1342,-0.1337,-0.1303,-0.1303,-0.1388,-0.1391,-0.1448,-0.1444,-0.1437,-0.1439,-0.1543,-0.1543,-0.1568,0,0,0,-0.1296,-0.1288,-0.1294,-0.1288,-0.1335,-0.1348,-0.1298,-0.1384,-0.1394,-0.1443,-0.1437,-0.144,-0.1543,-0.1543,-0.1567,-0.1536,0,0,0,-0.129,-0.1287,-0.1286,-0.1288,-0.1291,-0.1346,-0.1352,-0.1386,-0.1393,-0.1435,-0.144,-0.1543,-0.1543,-0.1566,-0.1536,-0.1524,0,0,0,-0.1284,-0.1285,-0.1285,-0.13,-0.1291,-0.1344,-0.1351,-0.1392,-0.1428,-0.1438,-0.1543,-0.1543,-0.1566,-0.1536,-0.1524,-0.1485,-0.1481,0,0,-0.1287,-0.1285,-0.13,-0.13,-0.1345,-0.1343,-0.1405,-0.1446,-0.1449,-0.1522,-0.1524,-0.1567,-0.1536,-0.1524,-0.1495,-0.149,0,0,0,-0.1304,-0.1308,-0.1326,-0.1348,-0.1385,-0.1412,-0.1456,-0.1473,-0.1508,-0.1469,-0.1564,-0.1542,-0.1534,-0.1511,-0.1508,-0.1403,-0.1544,-0.1544,-0.1544,-0.1276,-0.1313,-0.1343,-0.139,-0.1425,-0.1476,-0.1493,-0.1518,-0.1554,-0.1558,-0.1562,-0.1562,-0.154,-0.1536,-0.143,-0.1583,-0.1583,-0.1583,-0.1583,-0.1281,-0.1298,-0.1348,-0.1386,-0.1433,-0.1483,-0.1539,-0.155,-0.1571,-0.1584,-0.1577,-0.1537,-0.1534,-0.1422,-0.1585,-0.1585,-0.1584,-0.1584,-0.1584,-0.1256,-0.127,-0.1299,-0.1355,-0.1401,-0.1465,-0.149,-0.1531,-0.1551,-0.155,-0.1519,-0.1518,-0.1417,-0.156,-0.1559,-0.1559,-0.1559,-0.1559,-0.1559,-0.1207,-0.1245,-0.1259,-0.1323,-0.1345,-0.139,-0.1458,-0.1473,-0.1493,-0.1504,-0.1504,-0.1394,-0.1554,-0.1552,-0.1556,-0.1557,-0.1557,-0.1557,-0.1558,-0.117,-0.1183,-0.1203,-0.1222,-0.1278,-0.1283,-0.1372,-0.1404,-0.1429,-0.1421,-0.1321,-0.1482,-0.1457,-0.146,-0.1454,-0.1433,-0.1433,-0.1433,-0.1433,-0.1125,-0.1142,-0.1137,-0.1149,-0.1179,-0.1224,-0.1206,-0.1235,-0.1229,-0.1182,-0.1211,-0.1209,-0.1219,-0.118,-0.1188,-0.1178,-0.1087,-0.1086,-0.1086,-0.109,-0.1098,-0.1069,-0.1093,-0.1122,-0.1138,-0.1079,-0.1037,-0.1033,-0.1062,-0.1071,-0.1085,-0.1076,-0.1099,-0.1036,-0.1056,-0.1038,0,0]},{"header":{"parameterUnit":"m.s-1","parameterCategory":2,"la1":30.2992,"la2":30.254,"lo1":-89.0895,"lo2":-89.0443,"dy":0.0025,"dx":0.0025,"nx":19,"ny":19,"refTime":"2026-03-17T03:00:00:Z","depth":"0","parameterNumber":3,"parameterNumberName":"V-component_of_CURRENTS"},"data":[0,0,0,-0.0167,-0.0166,-0.0146,-0.0146,-0.0112,-0.0112,0,0,0,0,0,0,0,0,0,0,0,-0.0176,-0.0176,-0.0167,-0.0166,-0.0146,-0.0146,-0.0112,-0.0112,0,0,0,0,0,0,0,0,0,0,0,-0.0176,-0.0176,-0.0175,-0.0166,-0.0146,-0.0146,-0.0112,-0.013,0,0,0,0,0,0,0,0,0,0,-0.0151,-0.0167,-0.0176,-0.0175,-0.0166,-0.0146,-0.0146,-0.0131,-0.0129,-0.0117,0,-0.0113,0,-0.0108,-0.0109,-0.0109,0,0,0,-0.017,-0.0169,-0.0154,-0.0175,-0.0166,-0.0147,-0.0156,-0.013,-0.0128,-0.0114,-0.0112,-0.0111,-0.0107,-0.0109,-0.0108,-0.0072,-0.0072,0,0,-0.0171,-0.0181,-0.0156,-0.0153,-0.0158,-0.0157,-0.0156,-0.0129,-0.013,-0.0112,-0.011,-0.0107,-0.0108,-0.0108,-0.0072,-0.0072,0,0,0,-0.0172,-0.0182,-0.0168,-0.0154,-0.0149,-0.0156,-0.0155,-0.0132,-0.0125,-0.011,-0.0106,-0.0108,-0.0108,-0.0072,-0.0072,-0.0104,0,0,0,-0.0173,-0.0182,-0.0169,-0.0176,-0.015,-0.0143,-0.0159,-0.0127,-0.0123,-0.0107,-0.0108,-0.0107,-0.0072,-0.0072,-0.0103,-0.0146,0,0,0,-0.0177,-0.0182,-0.0177,-0.0176,-0.0164,-0.0144,-0.0136,-0.0126,-0.0121,-0.0109,-0.0107,-0.0072,-0.0072,-0.0103,-0.0144,-0.0143,0,0,0,-0.0192,-0.0199,-0.0178,-0.0189,-0.0164,-0.0156,-0.0136,-0.0133,-0.0125,-0.0108,-0.0072,-0.0072,-0.0103,-0.0142,-0.0142,-0.0111,-0.0114,0,0,-0.0212,-0.0202,-0.021,-0.019,-0.02,-0.0159,-0.0159,-0.0141,-0.0116,-0.0081,-0.0081,-0.0104,-0.0144,-0.0143,-0.01,-0.0103,0,0,0,-0.0224,-0.0232,-0.0229,-0.0231,-0.021,-0.0195,-0.0162,-0.0139,-0.0112,-0.0108,-0.0091,-0.0116,-0.0114,-0.0092,-0.0094,0.0017,-0.0071,-0.0071,-0.0071,-0.027,-0.0264,-0.0285,-0.0272,-0.026,-0.0218,-0.02,-0.016,-0.0124,-0.0112,-0.0131,-0.0142,-0.0118,-0.012,-0.0005,-0.0103,-0.0103,-0.0103,-0.0103,-0.0324,-0.0343,-0.0332,-0.0349,-0.0318,-0.0304,-0.0239,-0.0207,-0.017,-0.0142,-0.0138,-0.0114,-0.0124,-0.0001,-0.0105,-0.0104,-0.0104,-0.0104,-0.0104,-0.0365,-0.0374,-0.0382,-0.0408,-0.0408,-0.0363,-0.0352,-0.0291,-0.0223,-0.0219,-0.0171,-0.0169,-0.007,-0.0203,-0.0204,-0.0204,-0.0204,-0.0204,-0.0204,-0.0404,-0.0413,-0.0453,-0.0471,-0.0487,-0.0483,-0.0419,-0.0382,-0.0289,-0.0222,-0.022,-0.0055,-0.0173,-0.018,-0.0207,-0.0206,-0.0206,-0.0206,-0.0206,-0.0456,-0.0459,-0.0523,-0.0552,-0.0591,-0.0603,-0.0533,-0.0421,-0.0358,-0.0306,-0.0064,-0.0204,-0.0193,-0.019,-0.0196,-0.0226,-0.0226,-0.0226,-0.0226,-0.049,-0.0498,-0.0587,-0.0645,-0.0685,-0.0661,-0.0603,-0.044,-0.0188,-0.0041,-0.001,0.0044,0.004,0.0068,0.0065,0.0065,0.0102,0.0103,0.0104,-0.0529,-0.0554,-0.0624,-0.068,-0.073,-0.0715,-0.0637,-0.0393,-0.0012,0.0128,0.0139,0.0125,0.0215,0.0199,0.0253,0.024,0.0243,0,0]}],[{"header":{"parameterUnit":"m.s-1","parameterCategory":2,"la1":30.2992,"la2":30.254,"lo1":-89.0895,"lo2":-89.0443,"dy":0.0025,"dx":0.0025,"nx":19,"ny":19,"refTime":"2026-03-17T03:00:00:Z","depth":"2","parameterNumber":2,"parameterNumberName":"U-component_of_CURRENTS"},"data":[0,0,0,-0.1114,-0.1115,-0.1134,-0.1134,-0.1193,-0.1194,0,0,0,0,0,0,0,0,0,0,0,-0.1103,-0.1103,-0.1114,-0.1115,-0.1134,-0.1134,-0.1193,-0.1194,0,0,0,0,0,0,0,0,0,0,0,-0.1103,-0.1103,-0.1103,-0.1115,-0.1134,-0.1134,-0.1193,-0.117,0,0,0,0,0,0,0,0,0,0,-0.1147,-0.1129,-0.1103,-0.1103,-0.1115,-0.1134,-0.1134,-0.1169,-0.1172,-0.1194,0,-0.1193,0,-0.1198,-0.1199,-0.1199,0,0,0,-0.1116,-0.1126,-0.1135,-0.1103,-0.1115,-0.1134,-0.1126,-0.117,-0.1173,-0.1198,-0.1193,-0.1196,-0.1198,-0.1199,-0.1199,-0.1282,-0.1283,0,0,-0.1115,-0.1106,-0.1133,-0.1137,-0.1115,-0.1125,-0.1126,-0.1172,-0.1172,-0.1194,-0.1197,-0.1199,-0.12,-0.12,-0.1282,-0.1282,0,0,0,-0.1111,-0.1105,-0.1112,-0.1135,-0.1137,-0.1125,-0.1127,-0.1169,-0.1173,-0.1198,-0.12,-0.12,-0.1201,-0.1282,-0.1282,-0.1288,0,0,0,-0.111,-0.1103,-0.1112,-0.1106,-0.1136,-0.1148,-0.1123,-0.1169,-0.1175,-0.12,-0.12,-0.1201,-0.1281,-0.1282,-0.1287,-0.1272,0,0,0,-0.1103,-0.1102,-0.1103,-0.1106,-0.1115,-0.1147,-0.1153,-0.117,-0.1177,-0.1199,-0.1202,-0.1281,-0.1282,-0.1286,-0.1271,-0.1272,0,0,0,-0.1095,-0.1099,-0.1103,-0.1117,-0.1114,-0.1152,-0.1153,-0.1179,-0.1199,-0.12,-0.1281,-0.1282,-0.1285,-0.127,-0.1272,-0.1209,-0.1206,0,0,-0.1098,-0.1099,-0.1111,-0.1116,-0.1151,-0.1149,-0.1191,-0.1212,-0.1222,-0.1268,-0.127,-0.1287,-0.1271,-0.1272,-0.1262,-0.1257,0,0,0,-0.1112,-0.1116,-0.113,-0.115,-0.1178,-0.12,-0.1222,-0.1235,-0.1268,-0.1237,-0.1304,-0.1294,-0.1294,-0.1256,-0.1253,-0.1286,-0.1286,-0.1286,-0.1286,-0.1085,-0.1116,-0.1141,-0.1179,-0.1205,-0.1241,-0.1257,-0.128,-0.1296,-0.1313,-0.1312,-0.1332,-0.1294,-0.129,-0.1337,-0.1337,-0.1337,-0.1337,-0.1337,-0.1084,-0.1096,-0.1143,-0.1175,-0.1215,-0.1248,-0.1296,-0.1305,-0.1331,-0.1339,-0.1339,-0.128,-0.1286,-0.1337,-0.1337,-0.1337,-0.1337,-0.1337,-0.1337,-0.1055,-0.1067,-0.1095,-0.1146,-0.119,-0.1241,-0.1272,-0.1307,-0.1325,-0.1328,-0.1289,-0.1288,-0.1315,-0.1336,-0.1336,-0.1336,-0.1336,-0.1336,-0.1336,-0.1005,-0.104,-0.1054,-0.1115,-0.1139,-0.1187,-0.1255,-0.1271,-0.1281,-0.128,-0.128,-0.1332,-0.1332,-0.1316,-0.1335,-0.1335,-0.1335,-0.1335,-0.1335,-0.0962,-0.0979,-0.0996,-0.1018,-0.1078,-0.1083,-0.1176,-0.1199,-0.1227,-0.1211,-0.1253,-0.1255,-0.1242,-0.1244,-0.1226,-0.1221,-0.1221,-0.1221,-0.1221,-0.0919,-0.0935,-0.0934,-0.0951,-0.0984,-0.1028,-0.0998,-0.1002,-0.106,-0.1056,-0.1063,-0.1047,-0.1055,-0.1031,-0.1038,-0.1016,-0.0955,-0.0955,-0.0954,-0.0884,-0.0892,-0.0869,-0.0897,-0.093,-0.0941,-0.0861,-0.0764,-0.0801,-0.0942,-0.1001,-0.1206,-0.1201,-0.1207,-0.1186,-0.1191,-0.1162,0,0]},{"header":{"parameterUnit":"m.s-1","parameterCategory":2,"la1":30.2992,"la2":30.254,"lo1":-89.0895,"lo2":-89.0443,"dy":0.0025,"dx":0.0025,"nx":19,"ny":19,"refTime":"2026-03-17T03:00:00:Z","depth":"2","parameterNumber":3,"parameterNumberName":"V-component_of_CURRENTS"},"data":[0,0,0,-0.0172,-0.0172,-0.0157,-0.0157,-0.014,-0.014,0,0,0,0,0,0,0,0,0,0,0,-0.0179,-0.0179,-0.0172,-0.0172,-0.0157,-0.0157,-0.014,-0.014,0,0,0,0,0,0,0,0,0,0,0,-0.0179,-0.0179,-0.0179,-0.0172,-0.0157,-0.0157,-0.014,-0.0152,0,0,0,0,0,0,0,0,0,0,-0.0166,-0.0178,-0.0179,-0.0179,-0.0171,-0.0157,-0.0157,-0.0152,-0.0151,-0.0145,0,-0.0141,0,-0.0137,-0.0138,-0.0138,0,0,0,-0.0176,-0.0179,-0.0167,-0.0179,-0.0171,-0.0157,-0.0165,-0.0151,-0.015,-0.0144,-0.0141,-0.014,-0.0137,-0.0138,-0.0138,-0.0124,-0.0124,0,0,-0.0176,-0.0185,-0.0168,-0.0166,-0.0165,-0.0165,-0.0164,-0.0151,-0.0153,-0.0141,-0.014,-0.0137,-0.0138,-0.0138,-0.0124,-0.0124,0,0,0,-0.0176,-0.0186,-0.0174,-0.0166,-0.0162,-0.0165,-0.0164,-0.0154,-0.0147,-0.014,-0.0136,-0.0138,-0.0137,-0.0124,-0.0124,-0.0159,0,0,0,-0.0177,-0.0185,-0.0174,-0.0181,-0.0162,-0.0159,-0.0168,-0.0149,-0.0147,-0.0136,-0.0138,-0.0137,-0.0124,-0.0124,-0.0158,-0.0184,0,0,0,-0.018,-0.0186,-0.0181,-0.0181,-0.0172,-0.0159,-0.0153,-0.0148,-0.0144,-0.0138,-0.0137,-0.0124,-0.0124,-0.0157,-0.0182,-0.0174,0,0,0,-0.0194,-0.0203,-0.0182,-0.0197,-0.0172,-0.0176,-0.0153,-0.0158,-0.0156,-0.0138,-0.0124,-0.0124,-0.0156,-0.0181,-0.0173,-0.0151,-0.0154,0,0,-0.0216,-0.0206,-0.0217,-0.0197,-0.0214,-0.0178,-0.0191,-0.0176,-0.0152,-0.0129,-0.0128,-0.0158,-0.0182,-0.0173,-0.0153,-0.0156,0,0,0,-0.0231,-0.0239,-0.024,-0.0244,-0.0233,-0.0223,-0.0201,-0.0182,-0.0161,-0.0149,-0.0149,-0.0163,-0.0156,-0.0141,-0.0143,-0.0124,-0.0124,-0.0124,-0.0124,-0.0274,-0.0272,-0.0296,-0.029,-0.0285,-0.0256,-0.0242,-0.0209,-0.0184,-0.0174,-0.0184,-0.0194,-0.0178,-0.0179,-0.0169,-0.0169,-0.0169,-0.017,-0.017,-0.0327,-0.0347,-0.034,-0.0362,-0.0337,-0.0335,-0.0283,-0.0255,-0.0222,-0.0202,-0.0193,-0.017,-0.0183,-0.0172,-0.0172,-0.0171,-0.0171,-0.0171,-0.0171,-0.0364,-0.0375,-0.0385,-0.0415,-0.0418,-0.0384,-0.0373,-0.0323,-0.0262,-0.0257,-0.0214,-0.0213,-0.0216,-0.0243,-0.0243,-0.0244,-0.0244,-0.0244,-0.0244,-0.0399,-0.0411,-0.0449,-0.047,-0.0487,-0.0483,-0.0426,-0.0391,-0.031,-0.0255,-0.0254,-0.0218,-0.0216,-0.0219,-0.0245,-0.0245,-0.0245,-0.0244,-0.0244,-0.0449,-0.0451,-0.0513,-0.0541,-0.0579,-0.0587,-0.0524,-0.0421,-0.0362,-0.0316,-0.0238,-0.0237,-0.0221,-0.0219,-0.0221,-0.0246,-0.0246,-0.0246,-0.0246,-0.0479,-0.0487,-0.057,-0.0624,-0.066,-0.0637,-0.0582,-0.0445,-0.0311,-0.0232,-0.0233,-0.0215,-0.0215,-0.0197,-0.0196,-0.0196,-0.0216,-0.0216,-0.0216,-0.0515,-0.0538,-0.0602,-0.0654,-0.0699,-0.0681,-0.061,-0.041,-0.0216,-0.0215,-0.0238,-0.0242,-0.0217,-0.0217,-0.0188,-0.0185,-0.0186,0,0]}],[{"header":{"parameterUnit":"m.s-1","parameterCategory":2,"la1":30.2992,"la2":30.254,"lo1":-89.0895,"lo2":-89.0443,"dy":0.0025,"dx":0.0025,"nx":19,"ny":19,"refTime":"2026-03-17T03:00:00:Z","depth":"4","parameterNumber":2,"parameterNumberName":"U-component_of_CURRENTS"},"data":[0,0,0,-0.0865,-0.0866,-0.0932,-0.0933,-0.0931,-0.0931,0,0,0,0,0,0,0,0,0,0,0,-0.0845,-0.0845,-0.0865,-0.0866,-0.0932,-0.0933,-0.0931,-0.0931,0,0,0,0,0,0,0,0,0,0,0,-0.0844,-0.0845,-0.0846,-0.0866,-0.0932,-0.0933,-0.0931,-0.0903,0,0,0,0,0,0,0,0,0,0,-0.0849,-0.0845,-0.0845,-0.0846,-0.0867,-0.0932,-0.0933,-0.0903,-0.0905,-0.0876,0,-0.0892,0,-0.0908,-0.0929,-0.0929,0,0,0,-0.0867,-0.0843,-0.0858,-0.0846,-0.0867,-0.0932,-0.0903,-0.0904,-0.0907,-0.0878,-0.0892,-0.0893,-0.0908,-0.0928,-0.0928,-0.0917,-0.0917,0,0,-0.0864,-0.0856,-0.0857,-0.086,-0.089,-0.0901,-0.0905,-0.0907,-0.091,-0.0893,-0.0893,-0.0908,-0.0928,-0.0928,-0.0917,-0.0917,0,0,0,-0.0852,-0.0853,-0.0871,-0.0859,-0.0877,-0.0903,-0.0907,-0.0911,-0.0916,-0.0893,-0.0908,-0.0928,-0.0928,-0.0917,-0.0917,-0.0954,0,0,0,-0.085,-0.0847,-0.0869,-0.0865,-0.0877,-0.0907,-0.0911,-0.0916,-0.0917,-0.0908,-0.0928,-0.0927,-0.0916,-0.0917,-0.0953,-0.0978,0,0,0,-0.0841,-0.0846,-0.0855,-0.0864,-0.0892,-0.0907,-0.0914,-0.0918,-0.0925,-0.0929,-0.0927,-0.0916,-0.0917,-0.0951,-0.0976,-0.0992,0,0,0,-0.0828,-0.084,-0.0855,-0.0877,-0.0892,-0.0928,-0.0914,-0.0941,-0.0949,-0.0928,-0.0916,-0.0917,-0.0951,-0.0974,-0.099,-0.0855,0,0,0,-0.0832,-0.084,-0.0854,-0.0869,-0.0906,-0.0918,-0.0947,-0.0952,-0.0939,-0.0909,-0.091,-0.0953,-0.0975,-0.0991,-0.0872,0,0,0,0,-0.0848,-0.0856,-0.0871,-0.09,-0.0929,-0.0961,-0.0967,-0.0962,-0.0962,-0.0944,-0.0948,-0.0961,-0.097,-0.0886,-0.0918,-0.0918,-0.0918,-0.0918,-0.0918,-0.0827,-0.0855,-0.0882,-0.0919,-0.0948,-0.0985,-0.1007,-0.1,-0.0974,-0.098,-0.0988,-0.1021,-0.0933,-0.0978,-0.0978,-0.0978,-0.0978,-0.0978,-0.0978,-0.0821,-0.0832,-0.0885,-0.0919,-0.0967,-0.0995,-0.1029,-0.1032,-0.1041,-0.1013,-0.1019,-0.0926,-0.0982,-0.0981,-0.0981,-0.098,-0.098,-0.098,-0.0979,-0.0789,-0.08,-0.0837,-0.0896,-0.0955,-0.1006,-0.1042,-0.1073,-0.1077,-0.1097,-0.0991,-0.1048,-0.1049,-0.1092,-0.1092,-0.1092,-0.1092,-0.1092,-0.1092,-0.0733,-0.0773,-0.08,-0.0871,-0.091,-0.0971,-0.1051,-0.1065,-0.1093,-0.1025,-0.1105,-0.1059,-0.1056,-0.1055,-0.1095,-0.1095,-0.1094,-0.1094,-0.1094,-0.0681,-0.0709,-0.0737,-0.0774,-0.0856,-0.0893,-0.0993,-0.1001,-0.1007,-0.0977,-0.098,-0.0985,-0.096,-0.0959,-0.0954,-0.0965,-0.0964,-0.0962,0,-0.0638,-0.0656,-0.0681,-0.0715,-0.0751,-0.0838,-0.0824,-0.0865,-0.0896,-0.0865,-0.1,-0.1003,-0.1005,-0.0976,-0.0972,-0.0965,0,0,0,-0.0605,-0.0618,-0.0615,-0.0661,-0.0696,-0.0737,-0.0814,-0.0792,-0.0898,-0.0866,-0.0922,-0.0933,-0.1026,-0.1104,-0.1077,-0.1073,-0.107,0,0]},{"header":{"parameterUnit":"m.s-1","parameterCategory":2,"la1":30.2992,"la2":30.254,"lo1":-89.0895,"lo2":-89.0443,"dy":0.0025,"dx":0.0025,"nx":19,"ny":19,"refTime":"2026-03-17T03:00:00:Z","depth":"4","parameterNumber":3,"parameterNumberName":"V-component_of_CURRENTS"},"data":[0,0,0,-0.014,-0.014,-0.014,-0.014,-0.0145,-0.0145,0,0,0,0,0,0,0,0,0,0,0,-0.0143,-0.0143,-0.014,-0.014,-0.014,-0.014,-0.0145,-0.0145,0,0,0,0,0,0,0,0,0,0,0,-0.0143,-0.0143,-0.0143,-0.014,-0.014,-0.014,-0.0145,-0.0145,0,0,0,0,0,0,0,0,0,0,-0.0145,-0.0152,-0.0143,-0.0143,-0.014,-0.014,-0.014,-0.0145,-0.0145,-0.0146,0,-0.0145,0,-0.0143,-0.0145,-0.0145,0,0,0,-0.0144,-0.0152,-0.0144,-0.0143,-0.014,-0.014,-0.0141,-0.0145,-0.0145,-0.0146,-0.0145,-0.0145,-0.0143,-0.0145,-0.0145,-0.0175,-0.0175,0,0,-0.0144,-0.015,-0.0144,-0.0144,-0.0139,-0.0141,-0.0141,-0.0145,-0.0149,-0.0145,-0.0145,-0.0143,-0.0145,-0.0145,-0.0175,-0.0175,0,0,0,-0.0141,-0.0151,-0.0143,-0.0144,-0.0142,-0.0141,-0.0141,-0.0149,-0.0144,-0.0145,-0.0143,-0.0145,-0.0145,-0.0175,-0.0175,-0.0195,0,0,0,-0.0142,-0.0149,-0.0143,-0.0148,-0.0141,-0.0146,-0.0145,-0.0144,-0.0144,-0.0143,-0.0145,-0.0145,-0.0174,-0.0175,-0.0194,-0.0199,0,0,0,-0.0143,-0.0149,-0.0147,-0.0148,-0.0145,-0.0146,-0.0142,-0.0144,-0.0143,-0.0145,-0.0145,-0.0174,-0.0175,-0.0193,-0.0197,-0.0183,0,0,0,-0.0153,-0.0163,-0.0147,-0.0165,-0.0145,-0.0162,-0.0142,-0.0156,-0.0162,-0.0145,-0.0174,-0.0175,-0.0192,-0.0196,-0.0183,-0.0188,0,0,0,-0.0173,-0.0166,-0.0178,-0.0163,-0.0186,-0.0163,-0.0188,-0.0184,-0.0173,-0.0173,-0.0174,-0.0194,-0.0197,-0.0183,-0.0232,0,0,0,0,-0.0189,-0.0197,-0.0202,-0.0212,-0.0212,-0.0211,-0.0207,-0.02,-0.0201,-0.0178,-0.0204,-0.0205,-0.0195,-0.0198,-0.0179,-0.0178,-0.0178,-0.0178,-0.0178,-0.0223,-0.0226,-0.0253,-0.0255,-0.0261,-0.0252,-0.0246,-0.0236,-0.0229,-0.0232,-0.0228,-0.0242,-0.0248,-0.0238,-0.0239,-0.0239,-0.0239,-0.0239,-0.0239,-0.0266,-0.0285,-0.0289,-0.0315,-0.0305,-0.0318,-0.029,-0.0275,-0.0259,-0.0256,-0.0246,-0.0229,-0.0241,-0.0241,-0.024,-0.024,-0.024,-0.024,-0.024,-0.0292,-0.0302,-0.032,-0.0356,-0.0369,-0.0356,-0.035,-0.0319,-0.0279,-0.027,-0.0257,-0.0248,-0.0236,-0.0263,-0.0263,-0.0263,-0.0263,-0.0263,-0.0263,-0.031,-0.0328,-0.0367,-0.0397,-0.042,-0.0425,-0.0386,-0.0358,-0.0309,-0.0278,-0.0273,-0.025,-0.0249,-0.0237,-0.0262,-0.0262,-0.0262,-0.0262,-0.0263,-0.0342,-0.0349,-0.0407,-0.044,-0.0486,-0.0483,-0.045,-0.0369,-0.0333,-0.0291,-0.0272,-0.0271,-0.0257,-0.0256,-0.0244,-0.0272,-0.0272,-0.0272,0,-0.0357,-0.0367,-0.0444,-0.0497,-0.0528,-0.0516,-0.0464,-0.0413,-0.0336,-0.0331,-0.0338,-0.0321,-0.0319,-0.0308,-0.0306,-0.0296,0,0,0,-0.0379,-0.0401,-0.0456,-0.0511,-0.0547,-0.0487,-0.0446,-0.0412,-0.0351,-0.0309,-0.0276,-0.0275,-0.0303,-0.0261,-0.0238,-0.0237,-0.0217,0,0]}]]